St. Thomas, VI

9:49 PM AST on May 22, 2017 (GMT -0400)
King

Weather History for TIST - March, 2013

Change the Weather History Date:

Monday, March 25, 2013

  Actual Average Record
Temperature  
Mean Temperature 81 °F 80 °F  
Max Temperature 84 °F 86 °F 93 °F (1994)
Min Temperature 77 °F 73 °F 63 °F (1972)
Degree Days  
Heating Degree Days 0 0  
Month to date heating degree days 0 0  
Since 1 July heating degree days 0 0  
Cooling Degree Days 16 15  
Month to date cooling degree days 334 355  
Year to date cooling degree days 1136 1169  
Growing Degree Days 30 (Base 50)    
Moisture  
Dew Point 71 °F    
Average Humidity 74    
Maximum Humidity 84    
Minimum Humidity 59    
Precipitation  
Precipitation 0.00 in 0.05 in 2.58 in (1963)
Month to date precipitation 0.62 1.11  
Year to date precipitation 1.17 4.92  
Sea Level Pressure  
Sea Level Pressure 29.96 in    
Wind  
Wind Speed 12 mph (SE)    
Max Wind Speed 16 mph    
Max Gust Speed 23 mph    
Visibility 10 miles    
Events      
T = Trace of Precipitation, MM = Missing Value Source: NWS Daily Summary

Daily Weather History Graph

Daily Weather History Graph

Search for Another Location

Airport or City:

Trip Planner

Search our weather history database for the weather conditions in past years. The results will help you decide how hot, cold, wet, or windy it might be!

Date:

Astronomy

Mar. 25, 2013 Rise Set
Actual Time 6:19 AM AST 6:32 PM AST
Civil Twilight 5:57 AM AST 6:53 PM AST
Nautical Twilight 5:32 AM AST 7:19 PM AST
Astronomical Twilight 5:07 AM AST 7:44 PM AST
Moon 5:07 PM AST (3/25) 4:48 AM AST (3/25)
Length of Visible Light 12h 55m
Length of Day
12h 12m
Waxing Gibbous, 96% of the Moon is Illuminated
Mar 25
Waxing Gibbous
Mar 27
Full
Apr 3
Last Quarter
Apr 10
New
Apr 18
First Quarter

Hourly Weather History & Observations

Time (AST) Temp. Heat Index Dew Point Humidity Pressure Visibility Wind Dir Wind Speed Gust Speed Precip Events Conditions
12:06 AM 77.0 °F - 71.6 °F 83% 29.95 in 10.0 mi East 8.1 mph - N/A   Scattered Clouds
12:53 AM 78.1 °F - 71.1 °F 79% 29.94 in 10.0 mi SE 11.5 mph - N/A   Partly Cloudy
1:31 AM 77.0 °F - 71.6 °F 83% 29.92 in 10.0 mi East 11.5 mph - N/A   Mostly Cloudy
1:43 AM 78.8 °F - 71.6 °F 78% 29.92 in 10.0 mi ESE 8.1 mph - N/A   Scattered Clouds
1:53 AM 78.1 °F - 71.1 °F 79% 29.92 in 10.0 mi SE 10.4 mph - N/A   Scattered Clouds
2:53 AM 78.1 °F - 70.0 °F 76% 29.91 in 10.0 mi SE 12.7 mph - N/A   Partly Cloudy
3:53 AM 78.1 °F - 69.1 °F 74% 29.90 in 10.0 mi SE 11.5 mph - N/A   Partly Cloudy
4:53 AM 78.1 °F - 69.1 °F 74% 29.91 in 10.0 mi SE 9.2 mph - N/A   Partly Cloudy
5:53 AM 78.1 °F - 69.1 °F 74% 29.92 in 10.0 mi SE 11.5 mph - N/A   Partly Cloudy
6:53 AM 78.1 °F - 69.1 °F 74% 29.94 in 10.0 mi ESE 9.2 mph - N/A   Partly Cloudy
7:53 AM 80.1 °F 82.9 °F 69.1 °F 69% 29.97 in 10.0 mi ESE 12.7 mph - N/A   Mostly Cloudy
8:53 AM 80.1 °F 83.2 °F 70.0 °F 71% 29.99 in 10.0 mi SE 13.8 mph - N/A   Mostly Cloudy
9:53 AM 82.0 °F 85.5 °F 69.1 °F 65% 30.01 in 10.0 mi SE 13.8 mph - N/A   Scattered Clouds
10:53 AM 82.9 °F 87.0 °F 70.0 °F 65% 30.01 in 10.0 mi SE 13.8 mph - N/A   Clear
11:53 AM 82.9 °F 87.5 °F 71.1 °F 67% 30.00 in 10.0 mi SE 12.7 mph - N/A   Clear
12:53 PM 84.0 °F 89.6 °F 72.0 °F 67% 29.99 in 10.0 mi SSE 12.7 mph - N/A   Clear
1:53 PM 82.9 °F 87.5 °F 71.1 °F 67% 29.96 in 10.0 mi SSE 13.8 mph - N/A   Clear
2:53 PM 82.9 °F 87.5 °F 71.1 °F 67% 29.94 in 10.0 mi SSE 16.1 mph - N/A   Clear
3:53 PM 82.9 °F 87.5 °F 71.1 °F 67% 29.93 in 10.0 mi SSE 12.7 mph - N/A   Clear
4:53 PM 81.0 °F 85.2 °F 72.0 °F 74% 29.94 in 10.0 mi SE 13.8 mph - N/A   Clear
5:53 PM 81.0 °F 85.2 °F 72.0 °F 74% 29.95 in 10.0 mi SE 13.8 mph - N/A   Clear
6:53 PM 80.1 °F 83.8 °F 72.0 °F 76% 29.96 in 10.0 mi SE 11.5 mph - N/A   Scattered Clouds
7:53 PM 80.1 °F 84.2 °F 73.0 °F 79% 29.97 in 10.0 mi SE 11.5 mph 19.6 mph N/A   Scattered Clouds
8:44 PM 80.6 °F 85.4 °F 73.4 °F 79% 29.98 in 10.0 mi SE 10.4 mph - N/A   Mostly Cloudy
8:53 PM 79.0 °F - 73.0 °F 82% 29.99 in 10.0 mi SE 12.7 mph - N/A   Mostly Cloudy
9:17 PM 78.8 °F - 73.4 °F 83% 30.00 in 10.0 mi SE 10.4 mph - N/A   Mostly Cloudy
9:25 PM 78.8 °F - 73.4 °F 83% 30.00 in 10.0 mi SE 12.7 mph - N/A   Mostly Cloudy
9:45 PM 78.8 °F - 73.4 °F 83% 30.01 in 10.0 mi SE 10.4 mph - N/A   Mostly Cloudy
10:53 PM 79.0 °F - 73.0 °F 82% 30.02 in 10.0 mi SE 9.2 mph - N/A   Scattered Clouds
11:53 PM 79.0 °F - 73.9 °F 84% 30.01 in 10.0 mi SE 10.4 mph - N/A   Partly Cloudy